FENGYUN 1C DEB

Satellite information

Favourite Embed

Satellite Type and Status

DEBRISIN ORBIT

Key statistics

Satellite FENGYUN 1C DEB at a glance.

Uptime

9662

Days in orbit

Revolutions

≈ 13.9

Per day

Orbit

SSO

Sun Synchronous Orbit

Inclination

99.0

Latest

Satellite identification and parameters

Extended collection of information and parameters for FENGYUN 1C DEB.

Object identification

Identified? True

Debris? True

Object name: FENGYUN 1C DEB

International designator: 1999-025CFB

Object number (NORAD): 31752

Object ID (CCSDS): 31752

Country: PEOPLES REPUBLIC OF CHINA (PRC)

Current information (Y/N): Y

RCS size: SMALL

Orbital parameters

Period: 103.405 minutes

Inclination: 98.9827 deg

SMA: 7297.729 km

Apoapsis: 1182.356 km

Periapsis: 656.832 km

RAAN: 5.2961 deg

Eccentricy: 0.036006

Argument of periapsis: 126.5755 deg

Mean anomaly: 236.9113 deg

Mean motion: 13.92583288 rev/day

Mean motion (dot): 0.00005945 rev/day2

B* drag term: 0.0027207 1/REarth

Two-line elements (TLE)

Creation date: Oct. 18, 2025, 9:06 a.m.

Reference frame: TEME

Reference center: EARTH

Epoch: Oct. 17, 2025, 11:11 p.m. UTC

TLE line 0: 0 FENGYUN 1C DEB

TLE line 1: 1 31752U 99025CFB 25290.96623597 .00005945 00000-0 27207-2 0 9991

TLE line 2: 2 31752 98.9827 5.2961 0360060 126.5755 236.9113 13.92583288928140

Live tracking on map

Real-time ground track for satellite FENGYUN 1C DEB.

In-orbit conjunctions

A list of the most updated potential collisions computed for object FENGYUN 1C DEB.

Target Orbit TCA Probability of collision Miss distance Type
DELTA 1 DEB SSO 2024-08-09 09:36:44 0.0001151776 392.0 (m) DEBRIS

Associated space launch

Chinese polar orbiting meteorological satellite

FENGYUN 1C DEB was lifted into orbit during the mission ‘Long March 4B | Feng Yun 1C’, on board a Long March 4B space rocket.

The launch took place on May 10, 1999, 1:33 a.m. from Launch Complex 7.

For more information about the launch, click the button.

Launch to space Long March 4B | Feng Yun 1C
Long March 4B | Feng Yun 1C

Agency: N/A

Status: Launch Successful

Launch date: May 10, 1999, 1:33 a.m. UTC

Rocket: Long March 4B

Launch pad: Launch Complex 7

Location: Taiyuan Satellite Launch Center, People's Republic of China

...

Latest news about this satellite

There are no fresh news available about this satellite. Check back as we update our databases every day.


Newsletter sign-up

Weekly statistics, charts and insights to help you stay on top of the space industry.